TimeMDT,TemperatureF,Dew PointF,Humidity,Sea Level PressureIn,VisibilityMPH,Wind Direction,Wind SpeedMPH,Gust SpeedMPH,PrecipitationIn,Events,Conditions,WindDirDegrees,DateUTC
12:53 AM,63.0,45.0,52,29.97,10.0,North,4.6,-,N/A,,Scattered Clouds,360,2013-05-13 06:53:00
1:53 AM,61.0,46.0,58,29.98,10.0,NNW,8.1,-,N/A,,Partly Cloudy,340,2013-05-13 07:53:00
2:53 AM,60.1,46.0,60,29.97,10.0,NNW,5.8,-,N/A,,Partly Cloudy,340,2013-05-13 08:53:00
3:53 AM,57.9,45.0,62,29.97,10.0,NNW,4.6,-,N/A,,Clear,330,2013-05-13 09:53:00
4:53 AM,57.9,46.0,65,29.98,10.0,Calm,Calm,-,N/A,,Clear,0,2013-05-13 10:53:00
5:53 AM,53.1,46.0,77,29.99,10.0,Calm,Calm,-,N/A,,Scattered Clouds,0,2013-05-13 11:53:00
6:53 AM,54.0,46.0,75,30.00,10.0,SE,4.6,-,N/A,,Mostly Cloudy,130,2013-05-13 12:53:00
7:53 AM,59.0,48.0,67,30.00,10.0,ESE,4.6,-,N/A,,Mostly Cloudy,120,2013-05-13 13:53:00
8:53 AM,64.0,48.9,58,29.98,10.0,SE,5.8,-,N/A,,Mostly Cloudy,130,2013-05-13 14:53:00
9:53 AM,64.9,48.9,56,29.98,10.0,South,4.6,-,N/A,,Overcast,190,2013-05-13 15:53:00
10:53 AM,69.1,48.9,49,29.95,10.0,Calm,Calm,-,N/A,,Mostly Cloudy,0,2013-05-13 16:53:00
11:53 AM,73.0,46.0,38,29.92,10.0,Variable,5.8,-,N/A,,Clear,0,2013-05-13 17:53:00
12:53 PM,75.2,48.2,38,29.95,10.0,WNW,3.5,-,N/A,,Mostly Cloudy,290,2013-05-13 18:53:00
2:53 PM,80.1,46.9,31,29.80,10.0,NNW,5.8,-,N/A,,Partly Cloudy,340,2013-05-13 20:53:00
3:53 PM,82.0,46.0,28,29.73,10.0,Variable,6.9,-,N/A,,Scattered Clouds,0,2013-05-13 21:53:00
4:53 PM,72.0,48.0,43,29.73,10.0,WNW,23.0,36.8,0.00,,Overcast,300,2013-05-13 22:53:00
5:04 PM,68.0,51.8,56,29.82,9.0,West,28.8,39.1,0.00,Thunderstorm,Thunderstorm,270,2013-05-13 23:04:00
5:29 PM,66.2,53.6,64,29.83,10.0,NW,11.5,19.6,0.00,Rain,Light Rain,320,2013-05-13 23:29:00
5:53 PM,64.4,53.6,68,29.87,10.0,NW,16.1,26.5,N/A,Rain,Light Rain,320,2013-05-13 23:53:00
6:34 PM,59.0,53.6,82,29.83,2.0,NNE,9.2,24.2,0.08,Rain,Rain,30,2013-05-14 00:34:00
6:44 PM,60.8,53.6,77,29.86,10.0,NW,16.1,20.7,0.08,Rain,Light Rain,310,2013-05-14 00:44:00
6:53 PM,62.1,55.9,80,29.83,10.0,North,12.7,18.4,0.08,,Scattered Clouds,350,2013-05-14 00:53:00
7:53 PM,62.1,55.9,80,29.89,10.0,West,11.5,21.9,0.00,,Overcast,280,2013-05-14 01:53:00
8:06 PM,55.4,46.4,72,29.98,8.0,NW,27.6,43.7,0.00,Rain,Rain,320,2013-05-14 02:06:00
8:13 PM,53.6,46.4,77,30.02,5.0,NW,27.6,42.6,0.02,Rain,Rain,310,2013-05-14 02:13:00
8:53 PM,51.1,48.0,89,29.99,7.0,NNW,16.1,24.2,0.09,Rain,Rain,330,2013-05-14 02:53:00
9:53 PM,52.0,46.0,80,30.03,10.0,Calm,Calm,-,0.01,,Overcast,0,2013-05-14 03:53:00
10:53 PM,52.0,46.0,80,30.05,10.0,South,3.5,-,N/A,,Overcast,180,2013-05-14 04:53:00
11:53 PM,53.1,39.9,61,30.03,10.0,Calm,Calm,-,N/A,,Overcast,0,2013-05-14 05:53:00